Weather in Urunkhaika

Kazakhstan     48°47′09″N   86°01′37″E
temp.,
°C
wind,
m/s
gust,
m/s
humid.,
%
clouds,
%
prec.,
mm/h
press.,
hPa
HPBL,
m
8 may, sat
sat800:00+7nne228444 0.0 101425
03:00+6n228443 0.0 101423
06:00+7nne338719 0.0 101462
09:00+11n33668 0.0 1013759
12:00+12n335716 0.1 10131173
15:00+13n344271 0.0 10121398
18:00+12n35445 0.0 10131071
21:00+7nne33590 0.0 101530
9 may, sun
sun900:00+6nne43646 0.0 101631
03:00+4ne33656 0.0 101629
06:00+5ne34595 0.0 101651
09:00+10ne233642 0.0 1015493
12:00+13nw222535 0.0 10131300
15:00+13w222275 0.0 1012893
18:00+13wsw12305 0.0 1011293
21:00+8n12365 0.0 101212
10 may, mon
mon1000:00+7nne223763 0.0 101211
03:00+6ne223895 0.0 101111
06:00+8nne1141100 0.0 101110
09:00+11nnw113088 0.0 1010446
12:00+12wsw243481 0.0 1009652
15:00+12wsw354413 0.0 1009819
18:00+10wsw475632 0.0 1009694
21:00+7sw226488 0.0 101020
11 may, tue
tue1100:00+6wsw337683 0.3 101149
03:00+5s11800 0.1 101010
06:00+5sse11793 0.1 101027
09:00+9sw355922 0.1 10101049
12:00+10wsw586170 0.5 10091263
15:00+9wsw676418 0.6 10091049
18:00+8nne237013 0.9 1010459
21:00+5ese1183100 0.3 101150
12 may, wed
wed1200:00+4ssw3392100 0.5 101187
03:00+4s129296 0.1 101088
06:00+5s2389100 0.3 1009226
09:00+2ssw1299100 6.7 1011326
12:00+2ssw4697100 8.8 1011420
15:00+2wsw2399100 0.8 1012210
18:00+1n238795 1.3 1014353
21:00−1n229416 0.0 101743